Regional Weather Roundup
Issued by NWS

Current Version | Previous Version | Text Only | Print | Product List | Glossary On
Versions: 1 2 3 4 5 6 7 8 9 10 11 12 13 14 15 16 17 18 19 20 21 22 23 24 25 26 27 28 29 30 31 32 33 34 35 36 37 38 39 40 41 42 43 44 45 46 47 48 49 50
733
ASUS43 KLMK 100710
RWRKY
KENTUCKY REGIONAL WEATHER ROUNDUP
NATIONAL WEATHER SERVICE LOUISVILLE KY
200 AM EST SAT DEC 10 2016

NOTE "FAIR" INDICATES FEW OR NO CLOUDS BELOW 12,000 FEET
WITH NO SIGNIFICANT WEATHER AND/OR OBSTRUCTIONS TO VISIBILITY.

KYZ001>023-026-027-061>063-070>075-100800-
WESTERN AND SOUTH CENTRAL KENTUCKY

CITY           SKY/WX    TMP DP  RH WIND       PRES   REMARKS
PADUCAH        CLEAR     18  13  80 CALM      30.58F
HENDERSON      CLEAR     18  10  73 SW3       30.59S
OWENSBORO      PTCLDY    19  17  92 CALM      30.60S
HOPKINSVILLE   CLEAR     21  16  82 CALM      30.58F
BOWLING GREEN  CLEAR     19  14  81 CALM      30.60R
GLASGOW        CLEAR     17  15  93 CALM      30.58S
$$

KYZ024-025-028>034-038-045-046-053-100800-
NORTH CENTRAL KENTUCKY

CITY           SKY/WX    TMP DP  RH WIND       PRES   REMARKS
LOUISVILLE/SDF MOCLDY    24  12  60 W3        30.57F
LOUISVILLE/LOU CLOUDY    24  14  65 SW3       30.58F
FORT KNOX      CLEAR     17  13  86 CALM      30.54F
$$

KYZ035>037-039>044-047>052-055>060-089>105-100800-
NORTHEAST KENTUCKY

CITY           SKY/WX    TMP DP  RH WIND       PRES   REMARKS
LEXINGTON      CLOUDY    22  15  75 W3        30.55R
COVINGTON      PTCLDY    19  15  84 SW5       30.52F WCI  12
FRANKFORT      CLEAR     17  11  77 CALM      30.55S
$$

KYZ054-064>069-076>088-106>120-100800-
SOUTHEAST KENTUCKY

CITY           SKY/WX    TMP DP  RH WIND       PRES   REMARKS
JACKSON        CLEAR     17  13  84 CALM      30.50S
LONDON         CLEAR     16  12  84 CALM      30.53R
SOMERSET       CLEAR     16  14  93 CALM      30.57S
MIDDLESBORO    CLEAR     17  15  93 CALM      30.53S
MONTICELLO     SUNNY     10   7  87 CALM      30.56F
$$





USA.gov is the U.S. government's official web portal to all federal, state and local government web resources and services.